Location: C�an Torras
(41.5052°N, 1.9280°E)
Time: 07:38:33
(UTC+00:00)

Daily predictions for brighter satellites

Satellite Brightness Start Highest point End
(mag) Time Altitude Azimuth Time Altitude Azimuth Time Altitude Azimuth
Cosmos 1777 Rocket 4.4 17:12:59 10° S 17:17:55 43° ESE 17:22:54 10° NNE
CORIOLIS 4.2 17:13:29 10° SSE 17:18:51 71° ENE 17:24:13 10° N
Cosmos 2263 Rocket 2.5 17:14:02 10° SSW 17:19:42 73° WNW 17:25:24 10° NNE
Envisat 4.3 17:17:20 10° S 17:22:12 46° W 17:27:06 10° NNW
Cosmos 783 Rocket 4.5 17:17:40 10° NNW 17:22:54 67° ENE 17:28:07 10° SSE
NOAA 11 4.2 17:18:49 10° SSE 17:24:18 72° ENE 17:29:48 10° N
Cosmos 1354 Rocket 4.4 17:19:00 10° SSW 17:24:18 71° WNW 17:29:39 10° NNE
Cosmos 1455 4.0 17:25:28 10° NE 17:27:12 13° ENE 17:28:57 10° E
Cosmos 2058 Rocket 4.0 17:25:30 10° NNE 17:29:22 27° ENE 17:33:13 10° SE
X-37B 1.8 17:27:28 10° SSW 17:30:19 30° SSE 17:33:11 10° E
Cosmos 1300 2.6 17:27:53 10° N 17:31:42 75° E 17:35:30 10° SSE
Okean 1-7 Rocket 4.3 17:35:12 10° SSE 17:39:16 33° E 17:43:21 10° NNE
Lacrosse 5 2.9 17:36:53 10° NNW 17:41:10 27° NNE 17:45:00 12° E
ISS -3.1 17:39:13 10° SSW 17:42:24 43° SE 17:45:00 14° ENE
Cosmos 1939 Rocket 2.9 17:39:25 10° SSE 17:43:29 63° ENE 17:47:33 10° N
Cosmos 1943 3.5 17:38:35 10° NNW 17:44:15 74° WSW 17:49:52 10° SSE
Cosmos 1726 Rocket 3.5 17:40:40 10° N 17:45:00 64° E 17:49:22 10° SSE
Meteor 1-24 Rocket 3.7 17:40:41 10° SSW 17:46:03 80° W 17:51:23 10° N
ERS-2 3.0 17:42:53 10° NE 17:46:06 29° E 17:49:18 10° SSE
COSMOS 2455 2.9 17:41:03 10° SSW 17:47:01 71° ESE 17:53:03 10° NNE
CZ-2C R/B 4.3 17:45:49 12° ENE 17:47:45 14° E 17:50:42 10° ESE
Cosmos 1844 4.3 17:47:08 10° SSE 17:52:11 35° ESE 17:57:10 11° NE
IRS-1C Rocket 4.2 17:49:19 10° SE 17:54:21 50° ENE 17:59:25 10° N
CZ-4 R/B 2.1 17:52:12 10° SE 17:55:52 32° ENE 17:59:31 10° N
Feng Yun 1-1 Rocket 4.1 17:51:38 10° SSE 17:57:00 72° ENE 18:02:30 10° N
Cosmos 1315 Rocket 3.8 17:53:38 10° NNW 17:57:31 51° W 18:01:24 10° S
COSMO-SKYMED 1 2.5 17:59:19 10° NNE 18:03:41 85° E 18:08:02 10° SSW
Cosmos 2279 Rocket 4.2 17:58:41 10° N 18:04:58 77° W 18:11:11 10° S
Hubble Space Telescope 3.3 18:04:30 10° S 18:05:49 11° S 18:07:10 10° SSE
USA 267 4.2 18:04:12 17° E 18:07:58 29° SE 18:13:27 10° S
CZ-4 R/B 4.3 18:05:10 10° SSE 18:09:15 71° ENE 18:13:24 10° N
Okean-O 2.8 18:07:45 10° SE 18:11:58 45° ENE 18:16:12 10° N
CZ-2C R/B 3.1 18:08:09 10° SSE 18:13:22 78° ENE 18:18:55 10° N
CZ-4B R/B 2.2 18:10:28 10° N 18:13:45 50° WNW 18:16:57 10° SSW
Cosmos 1844 Rocket 2.7 18:08:28 10° SSW 18:14:03 67° ESE 18:19:24 11° NNE
Okean O Rocket 3.6 18:10:57 10° SSW 18:14:57 33° W 18:18:58 10° NNW
H-2A R/B 2.2 18:11:11 10° SE 18:15:55 47° ENE 18:20:46 10° N
Meteor 1-21 Rocket 4.3 18:11:34 10° S 18:16:54 53° E 18:22:17 10° NNE
Aureole 2 Rocket 2.1 18:14:39 10° SSW 18:17:36 78° WNW 18:19:29 21° NNE
Cosmos 923 Rocket 4.5 18:12:53 10° N 18:17:53 38° ENE 18:22:48 10° SE
Cosmos 1689 Rocket 1.9 18:20:01 47° NE 18:20:31 57° E 18:23:19 10° S
Cosmos 1898 Rocket 4.2 18:17:59 10° SSE 18:22:34 31° E 18:23:42 28° ENE
Cosmos 158 Rocket 4.2 18:18:12 10° N 18:23:21 47° ENE 18:28:31 10° SE
Cosmos 1680 Rocket 4.1 18:20:30 10° N 18:25:14 33° ENE 18:26:36 29° E
CZ-2D R/B 4.0 18:25:45 10° S 18:29:32 54° W 18:33:19 10° NNW
Cosmos 1602 Rocket 3.8 18:26:24 10° SSE 18:30:30 44° E 18:31:34 36° NE
Cosmos 1818 3.6 18:25:37 10° SSW 18:31:02 85° WNW 18:34:52 20° NNE
YAOGAN 1 2.4 18:29:34 10° SSE 18:33:52 76° ENE 18:38:12 10° N
SAR-Lupe-4 3.5 18:31:27 19° NNE 18:33:56 85° WNW 18:37:29 10° SSW
Meteor 2-10 Rocket 4.0 18:29:26 10° NNW 18:34:54 64° W 18:40:05 10° S
Cosmos 489 Rocket 4.4 18:30:46 10° NNW 18:37:09 73° ENE 18:43:27 10° SSE
CSL-04 Rocket 3.7 18:32:33 10° SE 18:37:44 51° ENE 18:43:02 10° N
Helios 1A Rocket 2.8 18:34:42 10° SSE 18:38:48 68° ENE 18:42:56 10° N
USA 234 4.3 18:40:20 24° NE 18:42:15 28° NNE 18:47:38 10° NW
Cosmos 1092 Rocket 3.8 18:37:44 10° S 18:43:54 71° E 18:50:02 10° NNE
ATLAS 5 CENTAUR R/B 4.1 18:42:30 10° WNW 18:44:34 13° NNW 18:46:46 10° N
SAR-Lupe-1 4.5 18:42:35 21° N 18:44:48 61° WNW 18:48:18 10° SSW
MOS 1 Rocket 4.3 18:43:45 10° N 18:47:49 42° WNW 18:51:51 10° SW
Iridium 4 Rocket 3.6 18:42:34 10° N 18:48:10 59° E 18:53:19 10° SSE
Meteor 2-1 Rocket 4.3 18:43:45 10° NNW 18:49:19 78° W 18:54:48 10° S
SJ-11-01 4.3 18:48:18 10° SSE 18:53:00 83° WSW 18:57:42 10° NNW
SJ 16-02 2.1 18:48:44 10° SW 18:53:02 52° WNW 18:55:59 19° N
Cosmos 1937 Rocket 4.0 18:52:41 10° S 18:56:45 42° SE 18:56:45 42° SE
Aureole 3 3.9 18:55:24 10° NNW 18:58:40 44° W 19:01:33 10° SSW
Cosmos 2112 Rocket 4.0 18:57:38 10° NNW 19:02:18 57° NE 19:02:18 57° NE
Cosmos 1455 3.4 18:59:25 10° NNW 19:03:02 42° W 19:06:39 10° SSW
Cosmos 1703 3.7 19:02:53 10° SSW 19:06:42 58° W 19:07:02 55° NW
X-37B 2.5 19:03:39 10° W 19:05:31 31° W 19:05:31 31° W
Cosmos 1340 4.2 19:04:02 10° S 19:05:49 27° SSW 19:05:49 27° SSW
ARGOS 3.3 19:11:07 10° S 19:16:26 69° WSW 19:21:49 10° NNW
Cosmos 44 3.3 19:14:14 10° SW 19:18:46 75° W 19:18:46 75° W
ISS -1.4 19:16:17 10° W 19:17:58 22° WNW 19:17:58 22° WNW
Lacrosse 5 2.0 19:19:32 10° NW 19:24:15 70° W 19:24:15 70° W
CZ-2C R/B 2.8 19:27:19 54° N 19:28:34 76° WNW 19:34:09 10° SSW
CZ-4 R/B 4.0 19:27:54 10° SW 19:30:56 20° W 19:33:57 10° NW
NOSS 3-1 (C) 4.0 19:26:11 10° NNW 19:33:48 71° NE 19:34:40 67° E
Cosmos 2026 Rocket 4.5 19:32:26 10° SSW 19:38:24 57° W 19:44:29 10° N
USA 229 DEB 4.1 19:43:23 10° NNW 19:49:18 56° N 19:49:18 56° N
USA 229 4.2 19:43:29 10° NNW 19:49:21 55° N 19:49:21 55° N
USA 267 3.2 19:51:34 78° WNW 19:51:34 78° WNW 19:57:53 10° SW
H-2A R/B 4.4 19:52:01 10° SW 19:55:36 20° W 19:59:15 10° NW
NOSS 3-1 (A) 4.4 19:58:45 10° NNW 20:04:27 54° N 20:04:27 54° N
Cosmos 2278 Rocket 4.3 20:01:06 10° SSW 20:02:22 17° SSW 20:02:22 17° SSW
